Weather History for Bowling Green, KY

Change the Weather History Date:

Tuesday, February 5, 2013

  Actual Average Record
Temperature  
Mean Temperature 47 °F 38 °F  
Max Temperature 59 °F 47 °F 75 °F (1927)
Min Temperature 35 °F 28 °F -3 °F (1917)
Degree Days  
Heating Degree Days 18 27  
Month to date heating degree days 152 139  
Since 1 July heating degree days 2353 2631  
Cooling Degree Days 0 0  
Month to date cooling degree days 0 0  
Year to date cooling degree days 0 0  
Moisture  
Dew Point 37 °F    
Average Humidity 63    
Maximum Humidity 83    
Minimum Humidity 43    
Precipitation  
Precipitation 0.00 in 0.14 in 2.24 in (1955)
Month to date precipitation 0.10 0.73  
Year to date precipitation 5.59 4.34  
Snow  
Snow 0.00 in 0.20 in 4.00 in (1984)
Month to date snowfall 1.0 0.8  
Since 1 July snowfall 1.3 5.3  
Snow Depth 0.00 in    
Sea Level Pressure  
Sea Level Pressure 29.97 in    
Wind  
Wind Speed 5 mph (WSW)    
Max Wind Speed 17 mph    
Max Gust Speed 21 mph    
Visibility 10 miles    
Events      
T = Trace of Precipitation, MM = Missing Value Source: NWS Daily Summary

Daily Weather History Graph

Daily Weather History Graph

Search for Another Location

Airport:

Trip Planner

Search our weather history database for the weather conditions in past years. The results will help you decide how hot, cold, wet, or windy it might be!

Date:

Astronomy

Feb. 05, 2013 Rise Set
Actual Time 6:44 AM CST 5:15 PM CST
Civil Twilight 6:17 AM CST 5:42 PM CST
Nautical Twilight 5:46 AM CST 6:13 PM CST
Astronomical Twilight 5:16 AM CST 6:43 PM CST
Moon 2:23 AM CST (2/5) 12:35 PM CST (2/5)
Length of Visible Light 11h 25m
Length of Day
10h 31m
Waning Crescent, 26% of the Moon is Illuminated
Feb 5
Waning Crescent
Feb 10
New
Feb 17
First Quarter
Feb 25
Full
Mar 4
Last Quarter

Hourly Weather History & Observations

Time (CST) Temp. Windchill Dew Point Humidity Pressure Visibility Wind Dir Wind Speed Gust Speed Precip Events Conditions
12:53 AM 46.0 °F 44.8 °F 37.9 °F 73% 29.93 in 10.0 mi WSW 3.5 mph - N/A   Overcast
1:53 AM 46.0 °F 44.8 °F 37.9 °F 73% 29.92 in 10.0 mi SW 3.5 mph - N/A   Overcast
2:53 AM 46.0 °F 43.9 °F 37.9 °F 73% 29.91 in 10.0 mi WSW 4.6 mph - N/A   Overcast
3:53 AM 46.0 °F 43.9 °F 37.9 °F 73% 29.92 in 10.0 mi WSW 4.6 mph - N/A   Overcast
4:46 AM 46.4 °F 42.9 °F 39.2 °F 76% 29.93 in 10.0 mi West 6.9 mph - N/A   Overcast
4:53 AM 46.0 °F 43.1 °F 39.0 °F 76% 29.93 in 10.0 mi WSW 5.8 mph - N/A   Overcast
5:53 AM 44.1 °F 42.5 °F 37.9 °F 79% 29.93 in 10.0 mi WSW 3.5 mph - N/A   Mostly Cloudy
6:06 AM 44.6 °F 42.2 °F 39.2 °F 81% 29.94 in 10.0 mi West 4.6 mph - N/A   Mostly Cloudy
6:53 AM 45.0 °F 42.6 °F 39.0 °F 80% 29.96 in 10.0 mi WNW 4.6 mph - N/A   Overcast
7:53 AM 46.0 °F 44.8 °F 39.0 °F 76% 29.99 in 10.0 mi WNW 3.5 mph - N/A   Overcast
8:53 AM 46.0 °F 44.8 °F 39.9 °F 79% 29.99 in 10.0 mi WNW 3.5 mph - N/A   Overcast
9:01 AM 46.4 °F 44.3 °F 39.2 °F 76% 29.99 in 10.0 mi WNW 4.6 mph - N/A   Overcast
9:49 AM 46.4 °F 44.3 °F 41.0 °F 81% 30.00 in 10.0 mi WNW 4.6 mph - N/A   Overcast
10:08 AM 48.2 °F - 39.2 °F 71% 30.01 in 10.0 mi West 9.2 mph - N/A   Overcast
10:23 AM 48.2 °F - 41.0 °F 76% 30.01 in 10.0 mi West 8.1 mph - N/A   Overcast
10:53 AM 50.0 °F - 39.9 °F 68% 30.02 in 10.0 mi West 10.4 mph - N/A   Mostly Cloudy
11:08 AM 50.0 °F - 39.2 °F 66% 30.00 in 10.0 mi WNW 6.9 mph - N/A   Scattered Clouds
11:53 AM 52.0 °F - 39.0 °F 61% 29.99 in 10.0 mi WSW 5.8 mph - N/A   Partly Cloudy
12:53 PM 54.0 °F - 37.9 °F 55% 29.96 in 10.0 mi SW 10.4 mph - N/A   Clear
1:53 PM 55.9 °F - 37.9 °F 51% 29.94 in 10.0 mi SW 12.7 mph - N/A   Clear
2:53 PM 57.9 °F - 37.0 °F 46% 29.94 in 10.0 mi SW 8.1 mph - N/A   Clear
3:53 PM 57.9 °F - 36.0 °F 44% 29.93 in 10.0 mi SW 9.2 mph - N/A   Clear
4:53 PM 55.9 °F - 34.0 °F 44% 29.94 in 10.0 mi WSW 6.9 mph - N/A   Clear
5:53 PM 54.0 °F - 33.1 °F 45% 29.96 in 10.0 mi SW 4.6 mph - N/A   Clear
6:53 PM 50.0 °F - 30.9 °F 48% 29.98 in 10.0 mi WSW 4.6 mph - N/A   Clear
7:53 PM 48.0 °F - 32.0 °F 54% 30.00 in 10.0 mi Calm Calm - N/A   Clear
8:53 PM 48.0 °F - 32.0 °F 54% 30.03 in 10.0 mi WSW 3.5 mph - N/A   Clear
9:53 PM 46.9 °F - 32.0 °F 56% 30.04 in 10.0 mi WSW 3.5 mph - N/A   Clear
10:53 PM 39.0 °F - 30.9 °F 73% 30.06 in 10.0 mi Calm Calm - N/A   Clear
11:53 PM 37.0 °F - 30.0 °F 76% 30.08 in 10.0 mi Calm Calm - N/A   Clear